Skip Page Navigation
NASA JPL Caltech
NASA Logo - Jet Propulsion Laboratory + View the NASA Portal
+ Center for Near-Earth Object Studies
JPL Home Earth Solar System Stars & Galaxies Technology
JPL Solar System Dynamics
BODIES ORBITS EPHEMERIDES TOOLS PHYSICAL DATA DISCOVERY FAQ SITE MAP
IMPORTANT: The SSD Announcement email list is now available. Major changes are coming in the near future, including possible hostname and/or URL changes. To be notified of such changes, subscribe to this email list.

Please visit this page for more details.


JPL Small-Body Database Browser
Search: [ help ]  
243187 (2007 TB265)
Classification: Main-belt Asteroid          SPK-ID: 2243187
Ephemeris | Orbit Diagram | Orbital Elements | Mission Design | Physical Parameters | Discovery Circumstances | Close-Approach Data ]

[ show orbit diagram ]
Orbital Elements at Epoch 2458600.5 (2019-Apr-27.0) TDB
Reference: JPL 12 (heliocentric ecliptic J2000)
 Element Value Uncertainty (1-sigma)   Units 
e .06844025480853939 8.1747e-08  
a 2.668298256884043 3.2979e-08 au
q 2.485679244277717 2.3112e-07 au
i 5.307877719669087 6.6482e-06 deg
node 261.1740774882617 7.8457e-05 deg
peri 304.7300140411431 9.0847e-05 deg
M 49.15276007596343 4.4706e-05 deg
tp 2458383.132107509576
(2018-Sep-21.63210751)
0.00019738 TDB
period 1592.025375088131
4.36
2.9515e-05
8.081e-08
d
yr
n .2261270489988711 4.1923e-09 deg/d
Q 2.850917269490369 3.5236e-08 au
  Orbit Determination Parameters
   # obs. used (total)      195  
   data-arc span      6662 days (18.24 yr)  
   first obs. used      1999-12-27  
   last obs. used      2018-03-24  
   planetary ephem.      DE431  
   SB-pert. ephem.      SB431-N16  
   condition code      0  
   norm. resid. RMS      .71534  
   source      ORB  
   producer      Otto Matic  
   solution date      2018-Apr-05 16:12:17  

Additional Information
 Earth MOID = 1.48531 au 
 Jupiter MOID = 2.14241 au 
 T_jup = 3.373 
[ show covariance matrix ]

Ephemeris | Orbit Diagram | Orbital Elements | Mission Design | Physical Parameters | Discovery Circumstances | Close-Approach Data ]

Physical Parameter Table
Parameter Symbol Value Units Sigma Reference Notes
absolute magnitude H 16.4   n/a MPO437135  

243187 (2007 TB265)          Discovered 2007-Oct-11 by Spacewatch at Kitt Peak
Reference: 20100626/Numbers.arcLast Updated: 2010-06-28

[ show close-approach data ]
Alternate Designations
 2007 TB265 = 2005 EB98 
Ephemeris | Orbit Diagram | Orbital Elements | Mission Design | Physical Parameters | Discovery Circumstances | Close-Approach Data ]
ABOUT SSD CREDITS/AWARDS PRIVACY/COPYRIGHT GLOSSARY LINKS
FirstGov 2019-Dec-08 18:46 UT
(server date/time)  
NASA Home Page
Site Manager:   Ryan S. Park
Webmaster  Alan B. Chamberlin